GSAT-6 (40880 NORAD) Tracking and Keplerian Element Data

This shows tracking and keplerian element data for the satellite.

Feedback or suggestion? Click here.




ElementValue
Catalog40880
NameGSAT-6
Epoch Orbit1279
Epoch Day46.93036772
Epoch Year2019
RAAN277.1167
Inclination0.0837
Eccentricity0.0008223
Argument of Perigee0.3487
Mean Anonmoly286.0397
Mean Motion1.00270856
Decay Rate-1.71E-06
L11 40880U 15041A 19046.93036772 -.00000171 00000-0 00000-0 0 9998
L22 40880 0.0837 277.1167 0008223 0.3487 286.0397 1.00270856 12791

Live tracking and technical data element details for GSAT-6 (NORAD 40880). GSAT-6 can be tracked NOW for your location showing map with azimuth and elevation plus other details from your city location.

Track the satellite on the map from your city or location and see movement details for azimuth, elevation, latitude, longitude, range, height, and movement on the map or in text.







IsCatalogInMostPopularTable: catalog: 40880, numindb: 142
Update: records affected: 1



GetName: 40880 GSAT-6

Hit Count: updated at: Sat, 16 Feb 2019 17:50:30 GMT